{"data":{"norad_id":87681,"epoch":"2026-05-22T05:45:39.180384Z","epoch_age_seconds":306713,"freshness":"STALE","line1":"1 87681U          26142.24003681  .00000628  00000+0  71904-3 0  9998","line2":"2 87681  66.7365  78.4004 0148971  51.9159 309.5238 13.71453422623843","mean_motion":13.71453422,"eccentricity":0.0148971,"inclination_deg":66.7365,"raan_deg":78.4004,"arg_perigee_deg":51.9159,"mean_anomaly_deg":309.5238,"bstar":0.00071904,"rev_number":62384,"period_min":104.9980974126,"perigee_km":884.52886463009,"apogee_km":1104.1864448727,"semimajor_km":7372.4946547514,"source":"CELESTRAK","updated_at":"2026-05-25T13:38:11.676250Z"}}